W4IFI Weather Reports


Display with metric or nautical units.
time (UTC)temp
F
wind
direction
speed
MPH
gust
MPH
rain 1hr
in
rain 24hr
in
rain mn
in
humidity
%
barometer
mb
20170818045729 76 0 0.0 0.0 0.00 0.00 0.00 92 1013.8
20170818044829 76 0 0.0 0.0 0.00 0.00 0.00 92 1013.9
20170818043929 76 0 0.0 0.0 0.00 0.00 0.00 92 1013.9
20170818043029 76 0 0.0 0.0 0.00 0.00 0.00 92 1013.9
20170818042129 76 0 0.0 0.0 0.00 0.00 0.00 91 1014.1
20170818041229 76 0 0.0 0.0 0.00 0.00 0.00 91 1013.9
20170818040329 76 266 0.0 2.0 0.00 0.00 0.00 92 1014.0
20170818035429 76 0 0.0 0.0 0.00 0.00 0.00 91 1014.1
20170818034529 76 0 0.0 0.0 0.00 0.00 0.00 91 1014.2
20170818033629 76 0 0.0 0.0 0.00 0.00 0.00 91 1014.4
20170818032730 76 267 0.0 1.0 0.00 0.00 0.00 91 1014.6
20170818031829 77 267 0.0 1.0 0.00 0.00 0.00 90 1014.8
20170818030930 77 266 0.0 3.0 0.00 0.00 0.00 89 1015.0
20170818030030 77 265 0.0 1.0 0.00 0.00 0.00 89 1015.2
20170818025130 77 265 0.0 3.0 0.00 0.00 0.00 89 1015.2
20170818024229 77 266 0.0 3.0 0.00 0.00 0.00 89 1015.2
20170818023329 77 0 0.0 0.0 0.00 0.00 0.00 89 1015.2
20170818022430 77 0 0.0 0.0 0.00 0.00 0.00 89 1015.1
20170818021530 78 0 0.0 0.0 0.00 0.00 0.00 88 1015.2
20170818020629 78 265 0.0 2.0 0.00 0.00 0.00 88 1015.3
20170818015729 78 273 1.0 4.0 0.00 0.00 0.00 87 1015.4
20170818014830 78 282 0.0 4.0 0.00 0.00 0.00 87 1015.3
20170818013929 78 281 0.0 1.0 0.00 0.00 0.00 87 1015.2
20170818013030 78 281 0.0 2.0 0.00 0.00 0.00 87 1015.4
20170818012130 78 0 0.0 0.0 0.00 0.00 0.00 86 1015.3
20170818011230 78 0 0.0 0.0 0.00 0.00 0.00 85 1015.2
20170818010330 79 222 0.0 1.0 0.00 0.00 0.00 85 1015.1
20170818005429 79 221 0.0 1.0 0.00 0.00 0.00 84 1015.1
20170818004529 79 0 0.0 0.0 0.00 0.00 0.00 83 1014.9
20170818003630 80 0 0.0 0.0 0.00 0.00 0.00 83 1014.8
20170818002729 80 0 0.0 0.0 0.00 0.00 0.00 82 1014.9
20170818001829 80 0 0.0 0.0 0.00 0.00 0.00 82 1014.7
20170818000929 80 0 0.0 0.0 0.00 0.00 0.00 81 1014.6
20170818000030 81 0 0.0 0.0 0.00 0.00 0.00 81 1014.6
20170817235130 81 272 0.0 3.0 0.00 0.00 0.00 80 1014.6
20170817234229 81 283 0.0 1.0 0.00 0.00 0.00 79 1014.2
20170817233330 82 277 0.0 7.0 0.00 0.00 0.00 78 1014.3
20170817232429 82 333 0.0 2.0 0.00 0.00 0.00 77 1014.3
20170817231529 82 248 0.0 3.0 0.00 0.00 0.00 77 1014.4
20170817230629 82 0 0.0 0.0 0.00 0.00 0.00 77 1014.6
20170817225730 82 0 0.0 0.0 0.00 0.00 0.00 76 1014.6
20170817224829 83 253 0.0 3.0 0.00 0.00 0.00 76 1014.8
20170817223929 83 227 0.0 4.0 0.00 0.00 0.00 75 1014.7
20170817223029 84 215 0.0 2.0 0.00 0.00 0.00 74 1014.7
20170817222129 84 271 0.0 3.0 0.00 0.00 0.00 74 1014.8
20170817221230 85 257 0.0 3.0 0.00 0.00 0.00 74 1014.8
20170817220330 85 0 0.0 0.0 0.00 0.00 0.00 74 1014.7
20170817215430 85 0 0.0 0.0 0.00 0.00 0.00 74 1014.6
20170817214530 86 294 0.0 3.0 0.00 0.00 0.00 72 1014.5
20170817213629 86 251 0.0 3.0 0.00 0.00 0.00 73 1014.4
20170817212730 85 241 1.0 8.0 0.00 0.00 0.00 72 1014.4
20170817211830 85 223 0.0 3.0 0.00 0.00 0.00 71 1014.5
20170817210930 85 6 0.0 3.0 0.00 0.00 0.00 74 1014.5
20170817210030 86 317 1.0 3.0 0.00 0.00 0.00 73 1014.4
20170817205129 87 279 0.0 2.0 0.00 0.00 0.00 73 1014.4
20170817204230 87 268 0.0 3.0 0.00 0.00 0.00 72 1014.4
20170817203330 88 273 0.0 3.0 0.00 0.00 0.00 71 1014.3
20170817202429 87 271 1.0 3.0 0.00 0.00 0.00 74 1014.5
20170817201529 86 0 0.0 0.0 0.00 0.00 0.00 76 1014.5
20170817200629 85 0 0.0 0.0 0.00 0.00 0.00 76 1014.7
20170817195729 84 238 0.0 1.0 0.00 0.00 0.00 78 1014.7
20170817194830 84 244 0.0 1.0 0.00 0.00 0.00 77 1014.8
20170817193929 84 246 0.0 6.0 0.00 0.00 0.00 74 1015.0
20170817193030 85 0 0.0 0.0 0.00 0.00 0.00 73 1015.2
20170817192129 84 226 1.0 4.0 0.00 0.00 0.00 75 1015.2
20170817191229 84 137 0.0 2.0 0.00 0.00 0.00 76 1015.3
20170817190330 84 214 1.0 4.0 0.00 0.00 0.00 74 1015.4
20170817185429 85 307 0.0 3.0 0.00 0.00 0.00 75 1015.5
20170817184530 86 286 0.0 3.0 0.00 0.00 0.00 75 1015.5
20170817183630 86 0 0.0 0.0 0.00 0.00 0.00 74 1015.7
20170817182730 86 298 0.0 4.0 0.00 0.00 0.00 74 1015.9
20170817181830 87 0 0.0 0.0 0.00 0.00 0.00 72 1016.0
20170817180929 88 238 0.0 4.0 0.00 0.00 0.00 69 1016.0
20170817180029 88 254 1.0 4.0 0.00 0.00 0.00 69 1016.2
20170817175129 89 254 1.0 6.0 0.00 0.00 0.00 66 1016.3
20170817174230 88 263 1.0 6.0 0.00 0.00 0.00 69 1016.3
20170817173329 87 246 2.0 8.0 0.00 0.00 0.00 71 1016.4
20170817172429 87 268 3.0 8.0 0.00 0.00 0.00 71 1016.5
20170817171530 87 267 2.0 7.0 0.00 0.00 0.00 69 1016.6
20170817170630 87 278 1.0 4.0 0.00 0.00 0.00 73 1016.8
20170817165730 86 276 2.0 7.0 0.00 0.00 0.00 72 1016.8
20170817164829 85 268 3.0 8.0 0.00 0.00 0.00 73 1016.9
20170817163929 86 267 1.0 4.0 0.00 0.00 0.00 71 1017.0
20170817163030 86 231 1.0 3.0 0.00 0.00 0.00 72 1017.1
20170817162129 86 259 1.0 4.0 0.00 0.00 0.00 70 1017.2
20170817161230 86 286 1.0 6.0 0.00 0.00 0.00 71 1017.3
20170817160330 86 346 1.0 6.0 0.00 0.00 0.00 70 1017.5
20170817155429 86 275 0.0 2.0 0.00 0.00 0.00 72 1017.5
20170817154529 84 220 1.0 4.0 0.00 0.00 0.00 76 1017.5
20170817153629 83 285 1.0 3.0 0.00 0.00 0.00 79 1017.5
20170817152729 82 271 2.0 4.0 0.00 0.00 0.00 78 1017.6
20170817151829 82 264 1.0 6.0 0.00 0.00 0.00 77 1017.6
20170817150929 82 265 1.0 3.0 0.00 0.00 0.00 79 1017.7
20170817150029 81 255 2.0 6.0 0.00 0.00 0.00 82 1017.9
20170817145130 81 254 0.0 6.0 0.00 0.00 0.00 81 1017.9
20170817144229 80 245 1.0 4.0 0.00 0.00 0.00 82 1018.0
20170817143330 79 252 1.0 4.0 0.00 0.00 0.00 83 1018.1
20170817142430 79 0 0.0 0.0 0.00 0.00 0.00 84 1018.2
20170817141529 78 269 1.0 3.0 0.00 0.00 0.00 84 1018.2
20170817140629 78 0 0.0 0.0 0.00 0.00 0.00 86 1018.2
20170817135729 77 0 0.0 0.0 0.00 0.00 0.00 87 1018.1
20170817134830 76 0 0.0 0.0 0.00 0.00 0.00 86 1018.2
20170817133929 76 0 0.0 0.0 0.00 0.00 0.00 88 1018.0
20170817133030 76 0 0.0 0.0 0.00 0.00 0.00 88 1018.1
20170817132130 75 0 0.0 0.0 0.00 0.00 0.00 90 1018.2
20170817131229 75 0 0.0 0.0 0.00 0.00 0.00 90 1018.3
20170817130330 74 282 1.0 3.0 0.00 0.00 0.00 92 1018.3
20170817125429 74 251 0.0 2.0 0.00 0.00 0.00 93 1018.4
20170817124530 73 0 0.0 0.0 0.00 0.00 0.00 95 1018.4
20170817123630 72 0 0.0 0.0 0.00 0.00 0.00 95 1018.3
20170817122730 71 0 0.0 0.0 0.00 0.00 0.00 96 1018.3
20170817121830 71 0 0.0 0.0 0.00 0.00 0.00 97 1018.2
20170817120929 70 0 0.0 0.0 0.00 0.00 0.00 97 1018.3
20170817120029 70 0 0.0 0.0 0.00 0.00 0.00 96 1018.3
20170817115129 69 0 0.0 0.0 0.00 0.00 0.00 96 1018.2
20170817114229 69 0 0.0 0.0 0.00 0.00 0.00 96 1018.2
20170817113329 69 0 0.0 0.0 0.00 0.00 0.00 96 1018.2
20170817112430 68 0 0.0 0.0 0.00 0.00 0.00 96 1018.2
20170817111530 68 0 0.0 0.0 0.00 0.00 0.00 96 1018.2
20170817110629 68 0 0.0 0.0 0.00 0.00 0.00 96 1018.1
20170817105729 68 0 0.0 0.0 0.00 0.00 0.00 96 1018.1
20170817104829 68 0 0.0 0.0 0.00 0.00 0.00 95 1017.9
20170817103929 69 0 0.0 0.0 0.00 0.00 0.00 96 1017.8
20170817103029 69 0 0.0 0.0 0.00 0.00 0.00 95 1017.7
20170817102130 69 0 0.0 0.0 0.00 0.00 0.00 96 1017.6
20170817101229 69 0 0.0 0.0 0.00 0.00 0.00 96 1017.6
20170817100329 69 0 0.0 0.0 0.00 0.00 0.00 95 1017.5
20170817095429 69 0 0.0 0.0 0.00 0.00 0.00 95 1017.4
20170817094529 69 0 0.0 0.0 0.00 0.00 0.00 96 1017.2
20170817093629 69 0 0.0 0.0 0.00 0.00 0.00 95 1017.3
20170817092730 69 0 0.0 0.0 0.00 0.00 0.00 95 1017.1
20170817091829 69 0 0.0 0.0 0.00 0.00 0.00 96 1017.1
20170817090929 69 0 0.0 0.0 0.00 0.00 0.00 95 1017.1
20170817090029 69 0 0.0 0.0 0.00 0.00 0.00 95 1017.1
20170817085130 69 0 0.0 0.0 0.00 0.00 0.00 95 1017.1
20170817084229 69 0 0.0 0.0 0.00 0.00 0.00 95 1017.1
20170817083330 69 0 0.0 0.0 0.00 0.00 0.00 95 1017.2
20170817082430 69 0 0.0 0.0 0.00 0.00 0.00 95 1017.2
20170817081529 69 0 0.0 0.0 0.00 0.00 0.00 95 1017.3
20170817080630 69 0 0.0 0.0 0.00 0.00 0.00 94 1017.3
20170817075730 69 0 0.0 0.0 0.00 0.00 0.00 94 1017.2
20170817074830 69 0 0.0 0.0 0.00 0.00 0.00 94 1017.3
20170817073929 69 0 0.0 0.0 0.00 0.00 0.00 94 1017.3
20170817073030 69 0 0.0 0.0 0.00 0.00 0.00 94 1017.3
20170817072129 69 0 0.0 0.0 0.00 0.00 0.00 94 1017.4
20170817071229 70 0 0.0 0.0 0.00 0.00 0.00 95 1017.5
20170817070329 69 0 0.0 0.0 0.00 0.00 0.00 94 1017.5
20170817065429 70 0 0.0 0.0 0.00 0.00 0.00 94 1017.7
20170817064529 70 0 0.0 0.0 0.00 0.00 0.00 95 1017.8
20170817063630 70 0 0.0 0.0 0.00 0.00 0.00 94 1017.8
20170817062729 70 0 0.0 0.0 0.00 0.00 0.00 94 1017.9
20170817061830 70 0 0.0 0.0 0.00 0.00 0.00 94 1017.8
20170817060929 70 0 0.0 0.0 0.00 0.00 0.00 94 1018.0
20170817060029 70 0 0.0 0.0 0.00 0.00 0.00 94 1018.1
20170817055130 70 0 0.0 0.0 0.00 0.00 0.00 93 1017.9
20170817054230 70 0 0.0 0.0 0.00 0.00 0.00 94 1018.1
20170817053329 70 0 0.0 0.0 0.00 0.00 0.00 93 1018.2
20170817052429 70 0 0.0 0.0 0.00 0.00 0.00 93 1017.9
20170817051529 71 0 0.0 0.0 0.00 0.00 0.00 94 1018.1
20170817050629 71 0 0.0 0.0 0.00 0.00 0.00 93 1018.2